User: anonymous   Login
Location: Unspecified
(0.0000°N, 0.0000°E)
Time: 09:08:53
(UTC+00:00)
Language:

SJ-6C - Orbit

View from above orbital plane
View from above orbital plane
View from above satellite
View from above satellite

Ground track
Ground track

The orbit data is extracted from the following two-line orbital elements,

1 29505U 06046A   18018.75583950 -.00000104  00000-0 -43078-5 0  9991
2 29505  97.8249  24.9758 0004552  89.5863 270.5880 14.94403238612065
Epoch (UTC): 18 January 2018 18:08:24
Eccentricity: 0.0004552
inclination: 97.8249°
perigee height: 581 km
apogee height: 587 km
right ascension of ascending node: 24.9758°
argument of perigee: 89.5863°
revolutions per day: 14.94403238
mean anomaly at epoch: 270.5880°
orbit number at epoch: 61206

The dashed part of the orbit path shows where the satellite is in the earth's shadow,  

DLR